Location: Bremen
(53.0793°N, 8.8017°E)
Time: 18:05:19
(UTC+01:00)

Vanguard 1 Rocket - Pass Details

Date: 06 December 2021
Orbit: 651 x 4224 km, 34.3° (Epoch: 18 January)

Event Time Altitude Azimuth Distance (km) Brightness Sun altitude
Rises 04:45:24 0° 248° (WSW) 5,043 - -31.3°
Reaches altitude 10° 04:48:26 10° 240° (WSW) 4,438 - -30.8°
Exits shadow 04:53:21 27° 220° (SW) 3,821 10.1 -30.1°
Maximum altitude 05:00:14 39° 178° (S) 3,907 10.5 -29.1°
Drops below altitude 10° 05:19:42 10° 121° (ESE) 7,169 12.7 -26.1°
Sets 05:26:27 0° 115° (ESE) 8,410 13.5 -25.1°
